User: anonymous   Login
Location: Unspecified
(0.0000°N, 0.0000°E)
Time: 15:08:22
(UTC+02:00)
Language:

Centaur D-1AR AC-41 - Orbit

View from above orbital plane
View from above orbital plane
View from above satellite
View from above satellite

Ground track
Ground track

The orbit data is extracted from the following two-line orbital elements,

1 10976U 78068B   16205.04806407 -.00000142  00000-0 -14076-2 0  9994
2 10976  21.7311 316.7715 7169329  55.6481 240.1871  2.22304945308933
Epoch (UTC): 23 July 2016 01:09:12
Eccentricity: 0.7169329
inclination: 21.7311°
perigee height: 641 km
apogee height: 36200 km
right ascension of ascending node: 316.7715°
argument of perigee: 55.6481°
revolutions per day: 2.22304945
mean anomaly at epoch: 240.1871°
orbit number at epoch: 30893

The dashed part of the orbit path shows where the satellite is in the earth's shadow,  

DLR